sat.trackr.live / text

‹ back to catalog

TRANSPORTER-17 OBJECT J

NORAD 69877 · 2026-156J

PAYLOAD ACTIVE UNKNOWN

§ Identity

Operator
Country
TBD
Launch date
2026-07-07
Launch site
AFWTR
Launch vehicle
Mass (kg)
RCS (m²)

External: N2YO · Heavens-Above · Gunter

§ Orbital elements

Epoch: 2026-09-19T13:00:58.703904Z

Period
96.54 min
Inclination
97.7459°
Eccentricity
0.0003165
Mean motion
14.91668853 rev/d
Perigee alt
590.5 km
Apogee alt
594.9 km
Semi-major
6,970.9 km
B*
2.7601e-4
RAAN
161.7299°
Arg perigee
253.7424°
Mean anomaly
106.3447°
Rev number
1,106

§ Raw data

TRANSPORTER-17 OBJECT J1 69877U 26156J   26262.54234611  .00002719  00000+0  27601-3 0  99982 69877  97.7459 161.7299 0003165 253.7424 106.3447 14.91668853 11061

JSON: /api/v1/satellites/69877 · /tle

For live sub-satellite position, see the globe view (requires WebGL).

§ Visibility from observer

Set your observer location to see the next 7 days of passes ≥ 10°. The values pass through the URL so the page stays shareable.

No JS? Fill the form by hand. The geolocation button needs JavaScript.